Location: Birkenwerder
(52.6919°N, 13.2774°E)
Time: 23:32:42
(UTC+00:00)

Cosmos 1570 Rocket - Pass Details

Date: 01 October 2020
Orbit: 763 x 788 km, 74.1° (Epoch: 24 October)

Event Time Altitude Azimuth Distance (km) Brightness Sun altitude
Exits shadow 00:37:14 14° 91° (E) 2,076 6.5 -36.4°
Drops below altitude 10° 00:39:49 10° 62° (ENE) 2,358 7.1 -36.2°
Sets 00:43:20 0° 38° (NE) 3,295 8.3 -35.9°
